Location: Warner Observatory
(35.1353°N, 89.5455°W)
Time: 02:19:36
(UTC-06:00)

Amateur Radio Satellites - All Passes

Search period start: 17 December 2017 01:49
Search period end: 18 December 2017 01:49
Location: Warner Observatory, 35.1353°N, 89.5455°W

Satellite Date Start Highest point End Downlink Frequencies (MHz)
Time Altitude Azimuth
FALCONSAT 3 17 Dec 01:56:07 01:59:17 27° 205° (SSW) 02:02:26 435.103
Oscar 19 17 Dec 01:58:27 02:03:32 56° 287° (WNW) 02:08:36 437.125/150
ITUPSAT 1 17 Dec 02:07:04 02:11:20 34° 71° (ENE) 02:15:37 437.325
BUGSAT 1 17 Dec 02:12:29 02:14:49 15° 292° (WNW) 02:17:10 437.445
UKube-1 17 Dec 02:13:59 02:17:27 23° 264° (W) 02:20:56 .
CUBESAT XI-V 17 Dec 02:24:49 02:27:56 18° 67° (ENE) 02:31:04 437.345
MOZHAYETS 4 17 Dec 02:29:54 02:34:26 87° 257° (WSW) 02:39:02
M-CUBED/EXP-1 PRIME 17 Dec 02:54:55 02:58:13 21° 98° (E) 03:01:22 437.505
Gurwin Techsat 1B 17 Dec 03:02:24 03:06:12 20° 294° (WNW) 03:09:59 435.225
JUGNU 17 Dec 03:08:51 03:12:23 16° 174° (S) 03:15:56 437.505
BEESAT 17 Dec 03:14:19 03:18:48 42° 260° (W) 03:23:18 436.000
PCSat 17 Dec 03:15:00 03:20:24 63° 62° (ENE) 03:25:45 145.827
ITAMSAT 1 17 Dec 03:16:25 03:21:16 39° 99° (E) 03:26:05 435.822/435.867
YUBILEINY 17 Dec 03:18:37 03:27:16 61° 280° (W) 03:36:02 435.215
AO-7 17 Dec 03:31:33 03:39:58 76° 106° (ESE) 03:48:19 .
ITUPSAT 1 17 Dec 03:45:41 03:49:11 20° 265° (W) 03:52:42 437.325
KKS-1 17 Dec 04:00:22 04:04:25 35° 72° (ENE) 04:08:29 437.445
CUBESAT XI-V 17 Dec 04:00:37 04:04:57 39° 262° (W) 04:09:21 437.345
BEESAT 3 17 Dec 04:26:21 04:30:16 79° 61° (ENE) 04:34:06 437.485
M-CUBED/EXP-1 PRIME 17 Dec 04:28:46 04:32:34 29° 295° (WNW) 04:36:08 437.505
STARS 17 Dec 04:35:35 04:39:31 33° 71° (ENE) 04:43:26 437.465
DOVE 4 17 Dec 04:55:56 05:00:20 88° 103° (ESE) 05:04:31 437.250
ITAMSAT 1 17 Dec 04:56:35 05:00:25 21° 294° (WNW) 05:04:15 435.822/435.867
JUGNU 17 Dec 04:57:02 05:00:39 17° 185° (S) 05:04:17 437.505
PCSat 17 Dec 05:00:23 05:03:10 14° 257° (WSW) 05:05:57 145.827
NO-84 17 Dec 05:00:28 05:03:19 68° 131° (SE) 05:06:20 435.350 FM
CUTE-I 17 Dec 05:03:35 05:06:13 14° 92° (E) 05:08:49 437.470
AO-85 17 Dec 05:05:09 05:08:34 19° 50° (NE) 05:12:07 145.980
BEESAT 2 17 Dec 05:12:59 05:16:59 67° 59° (ENE) 05:20:54 435.950
AO-7 17 Dec 05:25:49 05:31:50 23° 303° (WNW) 05:37:52 .
STRAND 1 17 Dec 05:31:17 05:34:28 17° 65° (ENE) 05:37:37 437.568
LilacSat-2 17 Dec 05:32:03 05:35:38 35° 98° (E) 05:39:12 437.200
NUDT-PHONESAT 17 Dec 05:35:00 05:37:59 22° 96° (E) 05:40:57 437.300
KKS-1 17 Dec 05:38:02 05:41:01 17° 265° (W) 05:44:01 437.445
XW-2D 17 Dec 05:42:24 05:46:07 46° 99° (E) 05:49:48 145.860 - 145.880
KAITUO 1B 17 Dec 05:43:30 05:46:53 31° 97° (E) 05:50:15 145.475/437.950
SRMSAT 17 Dec 05:49:38 05:53:12 16° 173° (S) 05:56:48 437.500
XW-2B 17 Dec 05:58:17 06:02:08 74° 101° (E) 06:05:57 145.730 - 145.750
XW-2F 17 Dec 06:07:49 06:11:40 87° 282° (WNW) 06:15:28 145.980 - 146.000
CUBEBUG 2 17 Dec 06:08:45 06:10:34 12° 93° (E) 06:12:26 437.445
STARS 17 Dec 06:12:50 06:15:52 18° 265° (W) 06:18:54 437.465
O/OREOS (USA 219) 17 Dec 06:20:38 06:22:13 12° 98° (E) 06:23:49 437.305
CUTE 1.7 + AOD 2 17 Dec 06:25:53 06:29:49 34° 97° (E) 06:33:42 437.475
XW-2C 17 Dec 06:26:01 06:29:42 44° 285° (WNW) 06:33:21 145.795 - 145.815
NO-84 17 Dec 06:40:24 06:40:57 10° 329° (NNW) 06:41:31 435.350 FM
CUTE-I 17 Dec 06:41:21 06:46:36 61° 287° (WNW) 06:51:48 437.470
AO-85 17 Dec 06:44:25 06:49:14 55° 244° (WSW) 06:54:20 145.980
JUGNU 17 Dec 06:47:27 06:48:53 11° 194° (SSW) 06:50:20 437.505
HO-68 17 Dec 06:54:58 07:02:06 68° 103° (ESE) 07:09:12 435.675
XW-2A 17 Dec 06:59:04 07:01:17 16° 95° (E) 07:03:30 145.665 - 145.685
LilacSat-2 17 Dec 07:07:38 07:09:33 13° 292° (WNW) 07:11:27 437.200
STRAND 1 17 Dec 07:08:12 07:13:10 51° 260° (W) 07:18:09 437.568
NUDT-PHONESAT 17 Dec 07:08:56 07:11:38 19° 290° (WNW) 07:14:20 437.300
FO-29 17 Dec 07:11:38 07:19:10 58° 72° (ENE) 07:26:48 435.910
KAITUO 1B 17 Dec 07:18:26 07:20:32 14° 291° (WNW) 07:22:37 145.475/437.950
XW-2D 17 Dec 07:19:14 07:19:48 10° 293° (WNW) 07:20:22 145.860 - 145.880
SEEDS 17 Dec 07:32:38 07:36:49 60° 284° (WNW) 07:40:57 437.485
UWE-3 17 Dec 07:36:33 07:40:55 76° 100° (E) 07:45:25 435.000/436.395/437.385
SRMSAT 17 Dec 07:37:46 07:41:39 18° 183° (S) 07:45:33 437.500
AAUSAT CUBESAT 2 17 Dec 07:42:33 07:46:42 69° 101° (E) 07:50:48 437.432
CUBEBUG 2 17 Dec 07:43:12 07:47:21 47° 285° (WNW) 07:51:37 437.445
ZACube-1 17 Dec 07:55:01 07:59:24 62° 101° (E) 08:03:51 437.345
O/OREOS (USA 219) 17 Dec 07:56:36 08:01:05 54° 292° (WNW) 08:05:34 437.305
CUTE 1.7 + AOD 2 17 Dec 08:02:33 08:05:20 17° 292° (WNW) 08:08:04 437.475
Oscar 11 17 Dec 08:09:44 08:13:59 49° 99° (E) 08:18:11 .
TIGRISAT 17 Dec 08:23:38 08:27:12 26° 71° (ENE) 08:30:45 435.000
AO-73 17 Dec 08:27:10 08:31:31 63° 284° (WNW) 08:35:57 145.935
UNISAT 6 17 Dec 08:27:27 08:31:16 32° 72° (ENE) 08:35:05 437.425
XW-2A 17 Dec 08:31:14 08:33:53 21° 288° (WNW) 08:36:31 145.665 - 145.685
HO-68 17 Dec 08:44:09 08:49:09 21° 300° (WNW) 08:54:08 435.675
ISS 17 Dec 08:53:53 08:55:53 15° 128° (SE) 08:57:53 437.550
FO-29 17 Dec 08:58:05 09:04:23 27° 267° (W) 09:10:50 435.910
Max Valier Satellite 17 Dec 09:24:11 09:27:46 42° 99° (E) 09:31:20 145.860
SRMSAT 17 Dec 09:27:40 09:30:05 12° 193° (SSW) 09:32:30 437.500
ZACube-1 17 Dec 09:34:10 09:35:08 11° 294° (WNW) 09:36:05 437.345
AIST 2D 17 Dec 09:34:48 09:36:43 14° 69° (ENE) 09:38:40 435.315
nSIGHT-1 17 Dec 09:36:00 09:39:11 70° 135° (SE) 09:42:22 .
EO-88 17 Dec 09:45:05 09:48:40 53° 100° (E) 09:52:15 145.990 - 145.960
PRISM 17 Dec 09:46:41 09:50:50 78° 76° (ENE) 09:55:00 437.425
Oscar 11 17 Dec 09:47:42 09:49:38 13° 294° (WNW) 09:51:33 .
DELFI C3 17 Dec 09:51:30 09:55:19 50° 285° (WNW) 09:59:06 145.870
TIGRISAT 17 Dec 10:00:34 10:03:50 21° 265° (W) 10:07:04 435.000
UNISAT 6 17 Dec 10:05:12 10:08:01 17° 266° (W) 10:10:50 437.425
EO-79 17 Dec 10:06:03 10:07:55 13° 66° (ENE) 10:09:47 145.935-145.965
POLYITAN 1 17 Dec 10:28:16 10:31:35 23° 70° (ENE) 10:34:55 437.675
ISS 17 Dec 10:28:58 10:32:05 40° 322° (NW) 10:35:13 437.550
ESTCUBE 1 17 Dec 10:44:17 10:48:03 25° 96° (E) 10:51:47 437.505/2401.250
QB50P2 17 Dec 10:53:21 10:57:25 53° 75° (ENE) 11:01:31 145.880/145.840
DUCHIFAT 1 17 Dec 10:53:47 10:57:34 35° 72° (ENE) 11:01:20 145.980
Max Valier Satellite 17 Dec 11:00:28 11:01:08 10° 293° (WNW) 11:01:48 145.860
AIST 2D 17 Dec 11:06:38 11:09:37 26° 264° (W) 11:12:36 435.315
nSIGHT-1 17 Dec 11:13:55 11:15:41 14° 332° (NNW) 11:17:27 .
NANOSAT C BR1 17 Dec 11:21:34 11:25:45 87° 260° (W) 11:29:56 145.865
BUGSAT 1 17 Dec 11:23:34 11:26:05 16° 68° (ENE) 11:28:36 437.445
Oscar 19 17 Dec 11:35:02 11:38:10 17° 65° (ENE) 11:41:20 437.125/150
NO-84 17 Dec 11:35:47 11:37:51 14° 34° (NE) 11:39:58 435.350 FM
EO-79 17 Dec 11:39:14 11:43:14 45° 261° (W) 11:47:15 145.935-145.965
LO-87 17 Dec 11:39:17 11:42:36 37° 286° (WNW) 11:45:54 145.935 - 145.965
POLYITAN 1 17 Dec 12:03:53 12:07:14 23° 264° (W) 12:10:35 437.675
VELOX 1 17 Dec 12:04:13 12:07:52 25° 96° (E) 12:11:28 145.980
SPROUT 17 Dec 12:20:22 12:24:36 74° 100° (E) 12:28:51 437.525
RS-15 17 Dec 12:20:50 12:30:38 29° 103° (ESE) 12:40:25 29.354- 29.394
ESTCUBE 1 17 Dec 12:21:00 12:24:43 25° 290° (WNW) 12:28:25 437.505/2401.250
DUCHIFAT 1 17 Dec 12:30:51 12:33:17 15° 266° (W) 12:35:43 145.980
AO-91 17 Dec 12:33:05 12:37:55 61° 76° (ENE) 12:42:17 145.960
AO-7 17 Dec 12:39:13 12:43:30 15° 52° (NE) 12:47:47 .
Gurwin Techsat 1B 17 Dec 12:39:20 12:44:28 52° 73° (ENE) 12:49:38 435.225
DX 1 17 Dec 12:50:49 12:53:30 16° 94° (E) 12:56:11 434.975-435.025
BUGSAT 1 17 Dec 12:57:33 13:01:10 31° 262° (W) 13:04:45 437.445
NO-84 17 Dec 13:11:37 13:15:26 78° 231° (SW) 13:19:32 435.350 FM
Oscar 19 17 Dec 13:12:01 13:17:00 52° 260° (W) 13:22:02 437.125/150
50 SAT 17 Dec 13:21:21 13:24:16 35° 99° (E) 13:27:10 437.505
YUBILEINY 17 Dec 13:32:46 13:41:29 60° 80° (E) 13:50:03 435.215
M-CUBED/EXP-1 PRIME 17 Dec 13:37:05 13:40:02 18° 62° (ENE) 13:43:05 437.505
VELOX 1 17 Dec 13:40:39 13:44:09 24° 291° (WNW) 13:47:40 145.980
UKube-1 17 Dec 14:02:55 14:07:13 70° 103° (ESE) 14:11:29 .
SO-50 17 Dec 14:03:34 14:07:54 56° 116° (ESE) 14:12:18 436.795
ITUPSAT 1 17 Dec 14:13:05 14:14:17 11° 92° (E) 14:15:29 437.325
AO-91 17 Dec 14:13:09 14:14:28 11° 266° (W) 14:15:45 145.960
Gurwin Techsat 1B 17 Dec 14:21:24 14:24:40 16° 267° (W) 14:27:55 435.225
DX 1 17 Dec 14:25:47 14:29:45 36° 288° (WNW) 14:33:42 434.975-435.025
AO-7 17 Dec 14:26:37 14:34:53 78° 70° (ENE) 14:43:14 .
MOZHAYETS 4 17 Dec 14:28:23 14:32:21 27° 96° (E) 14:36:17
RS-15 17 Dec 14:29:45 14:42:02 73° 301° (WNW) 14:54:20 29.354- 29.394
ITAMSAT 1 17 Dec 14:31:06 14:36:02 45° 72° (ENE) 14:40:58 435.822/435.867
M-CUBED/EXP-1 PRIME 17 Dec 15:09:55 15:13:59 40° 257° (WSW) 15:18:17 437.505
BEESAT 17 Dec 15:17:07 15:21:51 61° 101° (E) 15:26:33 436.000
YUBILEINY 17 Dec 15:30:48 15:37:33 26° 277° (W) 15:44:17 435.215
SO-50 17 Dec 15:46:07 15:48:43 15° 313° (NW) 15:51:20 436.795
ITUPSAT 1 17 Dec 15:47:43 15:52:27 63° 286° (WNW) 15:57:10 437.325
DOVE 4 17 Dec 15:56:40 16:01:52 63° 75° (ENE) 16:06:55 437.250
CUBESAT XI-V 17 Dec 15:59:50 16:04:31 65° 101° (E) 16:09:09 437.345
MOZHAYETS 4 17 Dec 16:05:37 16:09:20 24° 290° (WNW) 16:13:03
nSIGHT-1 17 Dec 16:05:42 16:08:13 20° 32° (NNE) 16:10:42 .
ITAMSAT 1 17 Dec 16:12:06 16:15:39 18° 266° (W) 16:19:13 435.822/435.867
LilacSat-2 17 Dec 16:12:38 16:14:03 12° 67° (ENE) 16:15:28 437.200
PCSat 17 Dec 16:13:50 16:15:48 12° 102° (ESE) 16:17:46 145.827
XW-2D 17 Dec 16:21:36 16:23:43 15° 68° (ENE) 16:25:51 145.860 - 145.880
CUTE-I 17 Dec 16:22:00 16:25:32 18° 65° (ENE) 16:29:05 437.470
AO-7 17 Dec 16:22:51 16:28:18 19° 266° (W) 16:33:49 .
O/OREOS (USA 219) 17 Dec 16:32:06 16:34:34 14° 58° (ENE) 16:37:01 437.305
XW-2B 17 Dec 16:36:43 16:39:37 21° 71° (ENE) 16:42:33 145.730 - 145.750
XW-2F 17 Dec 16:45:29 16:48:38 26° 72° (ENE) 16:51:49 145.980 - 146.000
RS-15 17 Dec 16:47:54 16:57:06 23° 327° (NNW) 17:06:13 29.354- 29.394
BEESAT 17 Dec 16:57:06 16:59:03 12° 296° (WNW) 17:01:01 436.000
ISS 17 Dec 16:59:12 17:02:24 49° 40° (NE) 17:05:35 437.550
XW-2C 17 Dec 17:03:28 17:07:07 49° 75° (ENE) 17:10:49 145.795 - 145.815
CUTE 1.7 + AOD 2 17 Dec 17:16:10 17:18:54 17° 68° (ENE) 17:21:39 437.475
HO-68 17 Dec 17:20:17 17:26:42 37° 66° (ENE) 17:33:07 435.675
KKS-1 17 Dec 17:30:15 17:34:40 72° 283° (WNW) 17:39:03 437.445
DOVE 4 17 Dec 17:37:19 17:39:47 13° 268° (W) 17:42:14 437.250
CUBESAT XI-V 17 Dec 17:39:44 17:41:16 11° 296° (WNW) 17:42:47 437.345
nSIGHT-1 17 Dec 17:41:31 17:44:28 34° 228° (SW) 17:47:24 .
NUDT-PHONESAT 17 Dec 17:43:12 17:46:52 71° 258° (WSW) 17:50:35 437.300
LilacSat-2 17 Dec 17:44:19 17:47:54 39° 262° (W) 17:51:32 437.200
PCSat 17 Dec 17:53:05 17:58:29 73° 297° (WNW) 18:03:55 145.827
KAITUO 1B 17 Dec 17:53:10 17:56:47 47° 261° (W) 18:00:26 145.475/437.950
XW-2D 17 Dec 17:54:12 17:57:33 31° 262° (W) 18:00:59 145.860 - 145.880
CUTE-I 17 Dec 17:59:55 18:05:08 51° 260° (W) 18:10:21 437.470
STARS 17 Dec 18:03:30 18:07:52 81° 284° (WNW) 18:12:12 437.465
O/OREOS (USA 219) 17 Dec 18:09:55 18:14:13 47° 254° (WSW) 18:18:29 437.305
XW-2B 17 Dec 18:10:49 18:13:39 20° 265° (W) 18:16:33 145.730 - 145.750
BEESAT 3 17 Dec 18:12:42 18:16:05 27° 112° (ESE) 18:19:28 437.485
XW-2F 17 Dec 18:20:14 18:22:41 17° 266° (W) 18:25:11 145.980 - 146.000
SEEDS 17 Dec 18:20:26 18:24:33 57° 76° (ENE) 18:28:44 437.485
AAUSAT CUBESAT 2 17 Dec 18:29:22 18:32:57 28° 72° (ENE) 18:36:33 437.432
UWE-3 17 Dec 18:30:31 18:34:21 37° 73° (ENE) 18:38:10 435.000/436.395/437.385
ISS 17 Dec 18:37:05 18:38:32 12° 233° (SW) 18:39:57 437.550
CUBEBUG 2 17 Dec 18:37:44 18:41:56 88° 248° (WSW) 18:46:07 437.445
ZACube-1 17 Dec 18:47:58 18:51:34 29° 72° (ENE) 18:55:11 437.345
FALCONSAT 3 17 Dec 18:48:49 18:49:39 11° 147° (SSE) 18:50:29 435.103
CUTE 1.7 + AOD 2 17 Dec 18:50:33 18:54:25 34° 263° (W) 18:58:19 437.475
XW-2A 17 Dec 18:57:55 19:01:14 65° 76° (ENE) 19:04:34 145.665 - 145.685
BEESAT 2 17 Dec 19:01:10 19:04:25 24° 112° (ESE) 19:07:43 435.950
Oscar 11 17 Dec 19:01:36 19:05:08 25° 70° (ENE) 19:08:40 .
HO-68 17 Dec 19:07:43 19:14:17 38° 261° (W) 19:20:53 435.675
RS-15 17 Dec 19:11:11 19:16:26 13° 4° (N) 19:21:35 29.354- 29.394
AO-73 17 Dec 19:19:11 19:23:14 63° 76° (ENE) 19:27:22 145.935
STRAND 1 17 Dec 19:21:41 19:26:46 71° 102° (ESE) 19:31:51 437.568
PCSat 17 Dec 19:42:02 19:42:48 10° 316° (NW) 19:43:35 145.827
BEESAT 3 17 Dec 19:50:27 19:53:33 22° 307° (NW) 19:56:41 437.485
Max Valier Satellite 17 Dec 20:01:34 20:03:02 12° 68° (ENE) 20:04:30 145.860
AAUSAT CUBESAT 2 17 Dec 20:05:24 20:08:21 19° 266° (W) 20:11:22 437.432
UWE-3 17 Dec 20:08:50 20:10:55 14° 267° (W) 20:13:01 435.000/436.395/437.385
FO-29 17 Dec 20:11:11 20:17:43 63° 100° (E) 20:23:26 435.910
EO-88 17 Dec 20:20:39 20:22:38 14° 69° (ENE) 20:24:38 145.990 - 145.960
FALCONSAT 3 17 Dec 20:24:43 20:28:12 41° 160° (SSE) 20:31:42 435.103
ZACube-1 17 Dec 20:25:07 20:27:51 17° 266° (W) 20:30:37 437.345
DELFI C3 17 Dec 20:32:47 20:36:40 52° 75° (ENE) 20:40:33 145.870
Oscar 11 17 Dec 20:37:43 20:41:09 23° 265° (W) 20:44:37 .
BEESAT 2 17 Dec 20:38:44 20:42:02 24° 307° (NW) 20:45:22 435.950
AO-85 17 Dec 20:56:09 21:00:00 70° 300° (WNW) 21:04:03 145.980
STRAND 1 17 Dec 21:03:21 21:05:18 12° 297° (WNW) 21:07:14 437.568
RS-15 17 Dec 21:24:56 21:34:53 30° 39° (NE) 21:44:21 29.354- 29.394
PRISM 17 Dec 21:32:47 21:34:41 13° 93° (E) 21:36:35 437.425
Max Valier Satellite 17 Dec 21:33:08 21:36:28 34° 262° (W) 21:39:50 145.860
ESTCUBE 1 17 Dec 21:41:24 21:44:15 17° 67° (ENE) 21:47:07 437.505/2401.250
EO-88 17 Dec 21:52:48 21:55:59 28° 263° (W) 21:59:10 145.990 - 145.960
TIGRISAT 17 Dec 21:53:26 21:57:50 85° 283° (WNW) 22:02:20 435.000
FO-29 17 Dec 21:57:41 22:01:58 19° 300° (WNW) 22:05:58 435.910
UNISAT 6 17 Dec 21:57:46 22:02:08 68° 284° (WNW) 22:06:36 437.425
FALCONSAT 3 17 Dec 22:03:29 22:07:11 88° 350° (N) 22:10:53 435.103
LO-87 17 Dec 22:11:29 22:14:50 42° 75° (ENE) 22:18:11 145.935 - 145.965
AIST 2D 17 Dec 22:34:10 22:37:09 25° 96° (E) 22:40:06 435.315
SO-50 17 Dec 22:38:02 22:41:46 23° 51° (NE) 22:45:33 436.795
QB50P2 17 Dec 22:43:35 22:44:47 11° 92° (E) 22:46:00 145.880/145.840
VELOX 1 17 Dec 22:59:02 23:01:46 16° 67° (ENE) 23:04:30 145.980
PRISM 17 Dec 23:06:16 23:10:05 38° 287° (WNW) 23:13:51 437.425
NANOSAT C BR1 17 Dec 23:09:44 23:12:41 18° 95° (E) 23:15:37 145.865
SPROUT 17 Dec 23:10:19 23:14:10 35° 72° (ENE) 23:18:01 437.525
ESTCUBE 1 17 Dec 23:16:28 23:20:41 40° 262° (W) 23:24:57 437.505/2401.250
EO-79 17 Dec 23:26:48 23:30:39 34° 98° (E) 23:34:30 145.935-145.965
RS-15 17 Dec 23:37:03 23:48:45 83° 244° (WSW) 23:59:50 29.354- 29.394
FALCONSAT 3 17 Dec 23:42:36 23:46:18 81° 190° (S) 23:49:58 435.103
DX 1 17 Dec 23:45:50 23:46:04 10° 64° (ENE) 23:46:18 434.975-435.025
POLYITAN 1 17 Dec 23:50:32 23:54:46 68° 101° (ESE) 23:58:59 437.675
AIST 2D 18 Dec 00:07:58 00:10:03 15° 290° (WNW) 00:12:07 435.315
DUCHIFAT 1 18 Dec 00:15:37 00:19:49 79° 284° (WNW) 00:24:02 145.980
QB50P2 18 Dec 00:16:42 00:20:47 49° 286° (WNW) 00:24:53 145.880/145.840
SO-50 18 Dec 00:17:59 00:22:18 36° 246° (WSW) 00:26:38 436.795
VELOX 1 18 Dec 00:33:40 00:37:50 40° 261° (W) 00:42:02 145.980
YUBILEINY 18 Dec 00:40:19 00:42:33 11° 76° (ENE) 00:44:48 435.215
BUGSAT 1 18 Dec 00:41:39 00:45:30 41° 99° (E) 00:49:23 437.445
NANOSAT C BR1 18 Dec 00:44:42 00:48:22 30° 288° (WNW) 00:52:02 145.865
SPROUT 18 Dec 00:47:32 00:50:07 16° 266° (W) 00:52:42 437.525
UKube-1 18 Dec 00:54:00 00:57:59 38° 72° (ENE) 01:01:58 .
Gurwin Techsat 1B 18 Dec 00:59:16 01:03:42 26° 96° (E) 01:08:06 435.225
EO-79 18 Dec 01:03:24 01:06:06 17° 292° (WNW) 01:08:48 145.935-145.965
JUGNU 18 Dec 01:07:32 01:08:59 11° 166° (SSE) 01:10:27 437.505
50 SAT 18 Dec 01:15:17 01:18:21 50° 259° (W) 01:21:26 437.505
DX 1 18 Dec 01:17:18 01:21:39 65° 259° (W) 01:26:00 434.975-435.025
FALCONSAT 3 18 Dec 01:21:55 01:25:10 29° 204° (SSW) 01:28:23 435.103
Oscar 19 18 Dec 01:26:33 01:31:45 71° 102° (ESE) 01:36:56 437.125/150
MOZHAYETS 4 18 Dec 01:27:46 01:30:54 19° 68° (ENE) 01:34:03
